DB0LC-2 Weather Reports


Display with metric or nautical units.
time (UTC)temp
F
wind
direction
speed
MPH
gust
MPH
rain 1hr
in
rain 24hr
in
rain mn
in
humidity
%
barometer
mb
20260831054625 68 0 0.0 0.0 0.00 0.00 0.00 62 915.2
20260831052545 68 0 0.0 0.0 0.00 0.00 0.00 56 915.0
20260831051541 68 0 0.0 0.0 0.00 0.00 0.00 62 915.0
20260831050520 68 0 0.0 0.0 0.00 0.00 0.00 61 915.0
20260831045510 69 0 0.0 0.0 0.00 0.00 0.00 59 915.1
20260831044444 68 0 0.0 0.0 0.00 0.00 0.00 62 914.9
20260831042419 68 0 0.0 0.0 0.00 0.00 0.00 56 915.0
20260831041357 68 0 0.0 0.0 0.00 0.00 0.00 62 915.0
20260831040343 68 0 0.0 0.0 0.00 0.00 0.00 61 914.9
20260831034309 68 0 0.0 0.0 0.00 0.00 0.00 61 915.0
20260831034307 68 0 0.0 0.0 0.00 0.00 0.00 61 914.9
20260831033244 68 0 0.0 0.0 0.00 0.00 0.00 61 915.1
20260831032230 68 0 0.0 0.0 0.00 0.00 0.00 57 915.0
20260831031206 68 0 0.0 0.0 0.00 0.00 0.00 62 915.1
20260831025129 68 0 0.0 0.0 0.00 0.00 0.00 58 914.9
20260831024116 68 0 0.0 0.0 0.00 0.00 0.00 62 915.0
20260831023051 68 0 0.0 0.0 0.00 0.00 0.00 62 914.9
20260831021020 68 0 0.0 0.0 0.00 0.00 0.00 62 915.1
20260831020015 68 0 0.0 0.0 0.00 0.00 0.00 62 915.0
20260831015003 68 0 0.0 0.0 0.00 0.00 0.00 57 915.3
20260831013924 68 0 0.0 0.0 0.00 0.00 0.00 62 915.3
20260831012846 68 0 0.0 0.0 0.00 0.00 0.00 61 915.0
20260831011746 69 0 0.0 0.0 0.00 0.00 0.00 61 914.6
20260831010707 68 0 0.0 0.0 0.00 0.00 0.00 61 913.6
20260831010705 68 0 0.0 0.0 0.00 0.00 0.00 61 913.7
20260831005638 68 0 0.0 0.0 0.00 0.00 0.00 58 912.8
20260831003508 68 0 0.0 0.0 0.00 0.00 0.00 60 912.8
20260831002444 68 0 0.0 0.0 0.00 0.00 0.00 62 912.7
20260831000348 68 0 0.0 0.0 0.00 0.00 0.00 58 912.8
20260830235331 68 0 0.0 0.0 0.00 0.00 0.00 62 912.6
20260830234306 68 0 0.0 0.0 0.00 0.00 0.00 60 912.7
20260830233242 68 0 0.0 0.0 0.00 0.00 0.00 62 912.8
20260830232203 68 0 0.0 0.0 0.00 0.00 0.00 61 913.0
20260830231124 68 0 0.0 0.0 0.00 0.00 0.00 60 913.0
20260830230051 68 0 0.0 0.0 0.00 0.00 0.00 62 913.3
20260830230049 68 0 0.0 0.0 0.00 0.00 0.00 62 913.2
20260830225009 68 0 0.0 0.0 0.00 0.00 0.00 59 913.2
20260830223931 68 0 0.0 0.0 0.00 0.00 0.00 62 913.3
20260830222907 68 0 0.0 0.0 0.00 0.00 0.00 60 913.3
20260830221841 68 0 0.0 0.0 0.00 0.00 0.00 62 913.3
20260830220829 68 0 0.0 0.0 0.00 0.00 0.00 61 913.4
20260830215818 68 0 0.0 0.0 0.00 0.00 0.00 58 913.5
20260830214809 68 0 0.0 0.0 0.00 0.00 0.00 62 913.5
20260830213758 68 0 0.0 0.0 0.00 0.00 0.00 59 913.6
20260830212731 68 0 0.0 0.0 0.00 0.00 0.00 62 913.7
20260830212729 68 0 0.0 0.0 0.00 0.00 0.00 62 913.6
20260830211720 68 0 0.0 0.0 0.00 0.00 0.00 61 913.8
20260830210707 69 0 0.0 0.0 0.00 0.00 0.00 61 913.8
20260830205655 68 0 0.0 0.0 0.00 0.00 0.00 61 913.8
20260830202522 68 0 0.0 0.0 0.00 0.00 0.00 60 913.9
20260830202520 68 0 0.0 0.0 0.00 0.00 0.00 60 914.1
20260830200438 68 0 0.0 0.0 0.00 0.00 0.00 61 913.9
20260830195413 68 0 0.0 0.0 0.00 0.00 0.00 61 914.0
20260830194347 68 0 0.0 0.0 0.00 0.00 0.00 62 913.9
20260830193327 68 0 0.0 0.0 0.00 0.00 0.00 58 914.0
20260830192307 68 0 0.0 0.0 0.00 0.00 0.00 62 914.1
20260830191259 68 0 0.0 0.0 0.00 0.00 0.00 60 914.0
20260830190237 68 0 0.0 0.0 0.00 0.00 0.00 62 913.9
20260830185237 68 0 0.0 0.0 0.00 0.00 0.00 61 914.0
20260830184212 68 0 0.0 0.0 0.00 0.00 0.00 61 913.9
20260830183210 68 0 0.0 0.0 0.00 0.00 0.00 61 913.9
20260830182133 68 0 0.0 0.0 0.00 0.00 0.00 58 913.7
20260830181107 68 0 0.0 0.0 0.00 0.00 0.00 61 913.8
20260830180042 68 0 0.0 0.0 0.00 0.00 0.00 58 913.8
20260830175021 68 0 0.0 0.0 0.00 0.00 0.00 61 913.8
20260830175019 68 0 0.0 0.0 0.00 0.00 0.00 61 913.7
20260830171834 68 0 0.0 0.0 0.00 0.00 0.00 61 913.8
20260830164723 68 0 0.0 0.0 0.00 0.00 0.00 57 913.8
20260830164720 68 0 0.0 0.0 0.00 0.00 0.00 57 913.8
20260830162522 68 0 0.0 0.0 0.00 0.00 0.00 59 913.8
20260830161511 68 0 0.0 0.0 0.00 0.00 0.00 61 914.0
20260830160441 68 0 0.0 0.0 0.00 0.00 0.00 60 913.9
20260830155415 68 0 0.0 0.0 0.00 0.00 0.00 61 913.9
20260830154337 68 0 0.0 0.0 0.00 0.00 0.00 59 914.0
20260830153311 68 0 0.0 0.0 0.00 0.00 0.00 61 914.1
20260830152223 68 0 0.0 0.0 0.00 0.00 0.00 59 914.0
20260830151130 69 0 0.0 0.0 0.00 0.00 0.00 61 914.2
20260830145107 69 0 0.0 0.0 0.00 0.00 0.00 59 914.2
20260830144045 68 0 0.0 0.0 0.00 0.00 0.00 61 914.3
20260830144043 68 0 0.0 0.0 0.00 0.00 0.00 61 914.3
20260830143019 68 0 0.0 0.0 0.00 0.00 0.00 58 914.3
20260830141931 68 0 0.0 0.0 0.00 0.00 0.00 61 914.1
20260830140855 68 0 0.0 0.0 0.00 0.00 0.00 58 914.1
20260830140853 68 0 0.0 0.0 0.00 0.00 0.00 58 914.2
20260830135830 68 0 0.0 0.0 0.00 0.00 0.00 61 914.3
20260830134802 68 0 0.0 0.0 0.00 0.00 0.00 59 914.2
20260830133754 68 0 0.0 0.0 0.00 0.00 0.00 61 914.2
20260830132723 68 0 0.0 0.0 0.00 0.00 0.00 60 914.4
20260830130649 68 0 0.0 0.0 0.00 0.00 0.00 61 914.4
20260830125639 68 0 0.0 0.0 0.00 0.00 0.00 58 914.5
20260830123556 68 0 0.0 0.0 0.00 0.00 0.00 59 914.5
20260830123554 68 0 0.0 0.0 0.00 0.00 0.00 59 914.5
20260830122521 68 0 0.0 0.0 0.00 0.00 0.00 61 914.5
20260830121457 68 0 0.0 0.0 0.00 0.00 0.00 60 914.4
20260830120447 69 0 0.0 0.0 0.00 0.00 0.00 60 914.5
20260830115421 68 0 0.0 0.0 0.00 0.00 0.00 61 914.5
20260830114412 68 0 0.0 0.0 0.00 0.00 0.00 58 914.5
20260830113348 68 0 0.0 0.0 0.00 0.00 0.00 61 914.5
20260830111306 69 0 0.0 0.0 0.00 0.00 0.00 60 914.7
20260830110231 68 0 0.0 0.0 0.00 0.00 0.00 60 914.7
20260830105223 68 0 0.0 0.0 0.00 0.00 0.00 57 914.7
20260830104158 68 0 0.0 0.0 0.00 0.00 0.00 61 914.9
20260830103156 68 0 0.0 0.0 0.00 0.00 0.00 59 914.9
20260830102129 69 0 0.0 0.0 0.00 0.00 0.00 60 915.0
20260830101105 68 0 0.0 0.0 0.00 0.00 0.00 61 915.2
20260830100042 68 0 0.0 0.0 0.00 0.00 0.00 58 915.2
20260830093938 68 0 0.0 0.0 0.00 0.00 0.00 60 915.3
20260830092917 69 0 0.0 0.0 0.00 0.00 0.00 57 915.3
20260830091852 68 0 0.0 0.0 0.00 0.00 0.00 61 915.3
20260830090825 68 0 0.0 0.0 0.00 0.00 0.00 59 915.3
20260830085750 68 0 0.0 0.0 0.00 0.00 0.00 61 915.4
20260830085748 68 0 0.0 0.0 0.00 0.00 0.00 61 915.3
20260830084724 68 0 0.0 0.0 0.00 0.00 0.00 61 915.3
20260830083710 68 0 0.0 0.0 0.00 0.00 0.00 57 915.3
20260830082700 68 0 0.0 0.0 0.00 0.00 0.00 60 915.2
20260830082657 68 0 0.0 0.0 0.00 0.00 0.00 60 915.2
20260830080647 68 0 0.0 0.0 0.00 0.00 0.00 60 915.2
20260830075633 69 0 0.0 0.0 0.00 0.00 0.00 61 915.3
20260830074620 68 0 0.0 0.0 0.00 0.00 0.00 61 915.3
20260830072608 69 0 0.0 0.0 0.00 0.00 0.00 61 915.2
20260830071357 68 0 0.0 0.0 0.00 0.00 0.00 61 915.2
20260830064945 68 0 0.0 0.0 0.00 0.00 0.00 61 915.2
20260830063914 68 0 0.0 0.0 0.00 0.00 0.00 60 915.1
20260830061800 68 0 0.0 0.0 0.00 0.00 0.00 61 915.3
20260830060736 68 0 0.0 0.0 0.00 0.00 0.00 60 915.3